Overview Statistics Trail Chart Weather Telemetry Raw packets
 

This is the latest recevied weather packets stored in our database for station/object N1ORT. If no packets are shown the sender has not sent any weather packets the latest 10 day(s).

<< 92 93 94 95 96 97 98 >>
Time Temp. Humidity Pressure Rain* Wind** Luminosity Snow
1787935332 25.56° C 76% 1014.1 hPa 0 mm - 594 W/m² -
1787935027 25.56° C 78% 1014.2 hPa 0 mm - 340 W/m² -
1787934722 25.56° C 80% 1014.3 hPa 0 mm - 484 W/m² -
1787934421 25.56° C 78% 1014.4 hPa 0 mm - 608 W/m² -
1787934121 25.56° C 80% 1014.4 hPa 0 mm - 425 W/m² -
1787933819 26.11° C 80% 1014.5 hPa 0 mm - 358 W/m² -
1787933515 25.56° C 79% 1014.5 hPa 0 mm - 343 W/m² -
1787933209 26.11° C 82% 1014.4 hPa 0 mm - 410 W/m² -
1787932904 25.56° C 82% 1014.4 hPa 0 mm - 389 W/m² -
1787932598 25.56° C 83% 1014.4 hPa 0 mm - 341 W/m² -
1787932297 26.11° C 79% 1014.4 hPa 0 mm - 394 W/m² -
1787931992 25° C 83% 1014.5 hPa 0 mm - 371 W/m² -
1787931691 25.56° C 81% 1014.6 hPa 0 mm - 243 W/m² -
1787931386 25.56° C 83% 1014.6 hPa 0 mm - 533 W/m² -
1787931081 26.11° C 81% 1014.6 hPa 0 mm - 710 W/m² -
1787930775 25° C 83% 1014.7 hPa 0 mm - 435 W/m² -
1787930475 25° C 83% 1014.5 hPa 0 mm - 315 W/m² -
1787930170 25° C 85% 1014.8 hPa 0 mm - 329 W/m² -
1787929869 25° C 85% 1014.5 hPa 0 mm - 301 W/m² -
1787929563 24.44° C 86% 1014.6 hPa 0 mm - 299 W/m² -
1787929262 23.89° C 87% 1014.7 hPa 0 mm - 347 W/m² -
1787928960 24.44° C 86% 1014.7 hPa 0 mm - 379 W/m² -
1787928655 23.89° C 89% 1014.5 hPa 0 mm - 468 W/m² -
1787928354 23.89° C 88% 1014.7 hPa 0 mm - 195 W/m² -
1787928053 23.89° C 89% 1014.7 hPa 0 mm - 292 W/m² -

* Rain latest hour (hover to see other rain measurements)
** Current wind speed in m/s (hover to see current wind gust speed)